全球星 M072星 (GLOBALSTAR M072)

导读

GLOBALSTAR M072是美国全球星系统的第一代低轨移动通信卫星,于2007年5月29日发射,属于该系统最后一批补网卫星。卫星基于LS-400平台建造,运行在高度约1414千米的中低轨道,提供语音、数据、短信等移动通信服务,为地面蜂窝网络盲区提供补充覆盖,支撑全球范围内无缝移动通信连接,是全球星星座实现全球不间断通信的重要组成部分。

Basic Information
目录编号:
31574
目录名称:
GLOBALSTAR M072
国际标识:
2007-020D
轨道中心:
EARTH
卫星名称:
全球星 M072星
卫星全名:
全球星 M072星 (GLOBALSTAR M072)
卫星状态:
在轨 (已飞行7046 天)
发射日期:
2007-05-29 UTC
国别 :
(GLOB)
星等 :
--
This satellite is enrolled in the Space Conjunction Data Service (SCDS) and the current flight risk assessment level is: No High Risk
Orbit Information
数据来源 国际轨道数据 AOE轨道数据
星历时间 2026-09-11T17:17:42+0800
21小时前
查看轨道信息
2026-09-10T17:00:00+0800
1天前
查看轨道信息
半长轴 8096.555km 8096.551km
偏心率 0.0001318 0.0001439
轨道倾角 51.991° 51.990°
近地点辐角 103.915° 109.089°
升交点赤经 230.757° 233.452°
平近点角 63.404° 33.572°
近地点 1717.35km 1717.248km
远地点 1719.486km 1719.58km
周期 120.840分钟 120.840分钟
每日圈数 11.9166 11.91661
Detailed Information
固有亮度:
5
最大亮度:
7.9
平衡模式:
三轴稳定
覆盖范围:
全球
运营商:
全球星公司
运营商所在国:
美国
使用方式:
暂无
Satellite Introduction
全球星星座由48颗卫星加8颗备份星组成。这些卫星分布在8个倾角为52度的圆形轨道平面上,每个轨道平面6颗卫星,另有1 颗备用星。轨道高度约为1414km,传输时延和处理时延小于300ms,整个系统的覆盖区为南北纬70度以内的地区。该卫星已退役。
2D Orbit Map
3D Orbit Map
Orbit Altitude Analysis Chart
Orbit Inclination Analysis Chart
Orbit Comprehensive Analysis Chart
View Comprehensive Chart
Miss Distance Evolution Trend with All Objects
Collision Probability Evolution Trend with All Objects